TimeCST,TemperatureF,Dew PointF,Humidity,Sea Level PressureIn,VisibilityMPH,Wind Direction,Wind SpeedMPH,Gust SpeedMPH,PrecipitationIn,Events,Conditions,WindDirDegrees,DateUTC
12:53 AM,41.0,37.0,86,30.22,10.0,SSE,5.8,-,N/A,,Clear,160,2013-02-18 06:53:00
1:53 AM,42.1,37.0,82,30.20,10.0,SSE,5.8,-,N/A,,Clear,150,2013-02-18 07:53:00
2:53 AM,41.0,37.0,86,30.18,10.0,SSE,6.9,-,N/A,,Clear,160,2013-02-18 08:53:00
3:53 AM,42.1,37.0,82,30.18,10.0,SSE,5.8,-,N/A,,Clear,150,2013-02-18 09:53:00
4:53 AM,42.1,37.9,85,30.17,10.0,SSE,5.8,-,N/A,,Clear,150,2013-02-18 10:53:00
5:53 AM,45.0,39.9,82,30.17,10.0,SE,6.9,-,N/A,,Clear,140,2013-02-18 11:53:00
6:53 AM,46.9,41.0,80,30.17,10.0,SSE,8.1,-,N/A,,Clear,150,2013-02-18 12:53:00
8:53 AM,55.9,45.0,67,30.17,10.0,SSE,12.7,19.6,N/A,,Mostly Cloudy,160,2013-02-18 14:53:00
9:53 AM,55.9,46.0,69,30.17,10.0,SSE,11.5,19.6,N/A,,Overcast,150,2013-02-18 15:53:00
10:53 AM,60.1,46.9,62,30.16,10.0,SSE,18.4,26.5,N/A,,Overcast,160,2013-02-18 16:53:00
11:53 AM,62.1,48.0,60,30.13,10.0,SSE,23.0,29.9,N/A,,Overcast,160,2013-02-18 17:53:00
12:53 PM,62.1,48.9,62,30.09,10.0,SSE,20.7,36.8,N/A,,Overcast,150,2013-02-18 18:53:00
1:53 PM,63.0,48.9,60,30.06,10.0,SSE,17.3,28.8,N/A,,Overcast,150,2013-02-18 19:53:00
2:53 PM,60.1,51.1,72,30.06,10.0,SSE,17.3,21.9,0.00,,Overcast,160,2013-02-18 20:53:00
3:53 PM,57.0,52.0,83,30.04,10.0,SSE,11.5,19.6,0.00,,Overcast,150,2013-02-18 21:53:00
4:14 PM,57.2,51.8,82,30.04,10.0,SSE,12.7,21.9,N/A,,Overcast,150,2013-02-18 22:14:00
4:53 PM,55.9,51.1,84,30.03,10.0,SSE,16.1,24.2,N/A,,Overcast,150,2013-02-18 22:53:00
5:31 PM,55.4,51.8,88,30.02,8.0,SSE,15.0,-,0.00,Rain,Light Rain,150,2013-02-18 23:31:00
5:53 PM,54.0,52.0,93,30.01,10.0,SE,11.5,-,0.00,,Overcast,140,2013-02-18 23:53:00
6:11 PM,53.6,51.8,94,30.01,10.0,SSE,13.8,-,0.00,Rain,Light Rain,150,2013-02-19 00:11:00
6:15 PM,53.6,51.8,94,30.01,10.0,SSE,11.5,-,0.00,,Overcast,150,2013-02-19 00:15:00
6:27 PM,53.6,51.8,94,30.01,10.0,SE,12.7,19.6,0.00,,Overcast,140,2013-02-19 00:27:00
6:40 PM,53.6,51.8,94,30.01,10.0,SSE,13.8,19.6,0.00,,Overcast,150,2013-02-19 00:40:00
6:53 PM,54.0,52.0,93,30.00,10.0,SSE,13.8,20.7,0.00,,Overcast,150,2013-02-19 00:53:00
7:03 PM,55.4,53.6,94,30.01,10.0,SSE,16.1,24.2,N/A,,Overcast,150,2013-02-19 01:03:00
7:37 PM,55.4,53.6,94,29.99,10.0,SSE,15.0,19.6,N/A,,Overcast,150,2013-02-19 01:37:00
7:53 PM,55.9,53.1,90,29.99,10.0,SSE,13.8,-,N/A,,Overcast,150,2013-02-19 01:53:00
8:21 PM,55.4,53.6,94,29.99,10.0,SSE,16.1,24.2,0.00,,Overcast,150,2013-02-19 02:21:00
8:50 PM,55.4,55.4,100,29.98,5.0,SSE,11.5,-,0.05,Rain,Light Rain,150,2013-02-19 02:50:00
8:53 PM,55.9,55.0,97,29.98,6.0,SSE,12.7,-,0.05,Rain,Light Rain,160,2013-02-19 02:53:00
9:53 PM,57.0,55.9,96,29.96,8.0,South,12.7,-,0.03,Rain,Light Rain,170,2013-02-19 03:53:00
10:25 PM,57.2,57.2,100,29.95,9.0,South,10.4,18.4,0.07,Rain,Light Rain,170,2013-02-19 04:25:00
10:53 PM,59.0,57.9,96,29.95,6.0,South,15.0,21.9,0.17,Rain,Rain,180,2013-02-19 04:53:00
10:55 PM,59.0,57.2,94,29.96,6.0,South,15.0,21.9,0.00,Rain,Rain,170,2013-02-19 04:55:00
11:07 PM,59.0,57.2,94,29.96,2.5,South,13.8,20.7,0.09,Rain,Heavy Rain,180,2013-02-19 05:07:00
11:13 PM,59.0,57.2,94,29.96,2.0,South,15.0,21.9,0.15,Rain,Heavy Rain,190,2013-02-19 05:13:00
11:25 PM,59.0,57.2,94,29.95,3.0,South,13.8,23.0,0.22,Rain,Heavy Rain,170,2013-02-19 05:25:00
11:53 PM,59.0,59.0,100,29.95,5.0,South,15.0,-,0.30,Rain,Rain,180,2013-02-19 05:53:00